Date String (YYYY-MM-DD hh:mm:ss) UTC,Instrument flags,Ambient pressure (hPa),Sample flow (lpm),Bypass flow (lpm),Sample temperature (°C),Ambient temperature (°C),ASC tube jacket temperature (°C),LED temperature (°C),Box temperature (°C),Sample RH (%),Span deviation,Mass concentration (μg/m³),Mass concentration (μg/m³),Mass concentration (μg/m³)
DateTimeUTC,F1_M11,P_M11,Q1_M11,Q2_M11,T1_M11,T2_M11,T3_M11,T4_M11,T5_M11,U1_M11,ZSPAN_M11,X0_M11,X2_M11,X1_M11
2021-10-01 14:00:00,,0831.4,5.01,0.00,28.3,27.4,00.0,37.4,30.1,21.3,0002.1,0009.13,0004.43,0004.02
2021-10-01 14:01:00,,0831.5,5.00,0.00,28.3,27.4,00.0,37.4,30.1,21.2,0001.9,0009.29,0004.46,0004.03
2021-10-01 14:02:00,,0831.5,5.00,0.00,28.3,27.4,00.0,37.4,30.2,21.1,0002.0,0009.25,0004.45,0004.03
2021-10-01 14:03:00,,0831.5,4.98,0.00,28.3,27.4,00.0,37.4,30.1,21.2,0001.7,0009.18,0004.42,0004.03
2021-10-01 14:04:00,,0831.5,5.00,0.00,28.3,27.4,00.0,37.5,30.2,20.6,0001.5,0009.17,0004.42,0004.03
2021-10-01 14:05:00,,0831.5,5.01,0.00,28.3,27.4,00.0,37.5,30.2,20.8,0001.3,0009.07,0004.39,0004.03
2021-10-01 14:06:00,,0831.5,5.00,0.00,28.4,27.4,00.0,37.5,30.2,21.2,0001.1,0009.18,0004.37,0004.02
2021-10-01 14:07:00,,0831.5,5.00,0.00,28.4,27.4,00.0,37.5,30.2,21.1,0001.1,0009.11,0004.39,0004.02
2021-10-01 14:08:00,,0831.4,4.99,0.00,28.4,27.4,00.0,37.5,30.2,21.0,0001.3,0009.24,0004.40,0004.01
2021-10-01 14:09:00,,0831.4,5.01,0.00,28.4,27.4,00.0,37.5,30.2,21.0,0001.7,0009.09,0004.41,0004.01
2021-10-01 14:10:00,,0831.4,5.01,0.00,28.3,27.4,00.0,37.4,30.2,20.9,0001.9,0008.57,0004.44,0004.00
2021-10-01 14:11:00,,0831.5,5.00,0.00,28.3,27.4,00.0,37.4,30.1,20.8,0001.7,0008.62,0004.46,0004.00
2021-10-01 14:12:00,,0831.5,5.00,0.00,28.3,27.4,00.0,37.4,30.1,21.1,0001.7,0009.07,0004.46,0004.00
2021-10-01 14:13:00,,0831.5,4.99,0.00,28.3,27.4,00.0,37.4,30.1,21.3,0001.5,0009.25,0004.49,0004.00
2021-10-01 14:14:00,,0831.5,5.00,0.00,28.3,27.4,00.0,37.4,30.1,21.2,0001.6,0009.40,0004.54,0004.01
2021-10-01 14:15:00,,0831.5,4.99,0.00,28.3,27.4,00.0,37.4,30.1,21.1,0001.3,0009.37,0004.54,0004.01
2021-10-01 14:16:00,,0831.5,5.00,0.00,28.3,27.4,00.0,37.4,30.1,21.2,0001.2,0009.48,0004.58,0004.02
2021-10-01 14:17:00,,0831.6,4.99,0.00,28.3,27.4,00.0,37.4,30.1,21.1,0000.8,0009.29,0004.65,0004.03
2021-10-01 14:18:00,,0831.6,4.99,0.00,28.3,27.4,00.0,37.4,30.1,21.3,0001.2,0009.05,0004.66,0004.04
2021-10-01 14:19:00,,0831.5,5.01,0.00,28.3,27.4,00.0,37.4,30.1,21.7,0001.2,0009.08,0004.68,0004.06
2021-10-01 14:20:00,,0831.5,4.99,0.00,28.3,27.4,00.0,37.4,30.1,21.5,0001.2,0008.99,0004.68,0004.07
2021-10-01 14:21:00,,0831.5,5.00,0.00,28.3,27.4,00.0,37.4,30.1,21.2,0001.3,0009.00,0004.72,0004.09
2021-10-01 14:22:00,,0831.5,5.00,0.00,28.3,27.4,00.0,37.4,30.0,21.6,0001.0,0008.92,0004.69,0004.10
2021-10-01 14:23:00,,0831.5,5.02,0.00,28.3,27.4,00.0,37.4,30.1,21.5,0000.5,0008.71,0004.71,0004.10
2021-10-01 14:24:00,,0831.5,4.98,0.00,28.3,27.4,00.0,37.4,30.1,21.4,0001.1,0008.56,0004.71,0004.10
2021-10-01 14:25:00,,0831.5,5.00,0.00,28.3,27.4,00.0,37.4,30.0,21.5,0001.1,0008.41,0004.67,0004.09
2021-10-01 14:26:00,,0831.6,5.00,0.00,28.2,27.4,00.0,37.4,30.0,21.4,0001.5,0008.54,0004.68,0004.09
2021-10-01 14:27:00,,0831.6,5.01,0.00,28.2,27.3,00.0,37.4,30.0,21.5,0001.6,0008.62,0004.69,0004.09
2021-10-01 14:28:00,,0831.6,5.00,0.00,28.2,27.3,00.0,37.4,30.0,21.7,0002.0,0008.63,0004.70,0004.10
2021-10-01 14:29:00,,0831.6,5.01,0.00,28.2,27.3,00.0,37.4,29.9,21.5,0001.6,0008.86,0004.76,0004.11
2021-10-01 14:30:00,,0831.6,5.01,0.00,28.2,27.3,00.0,37.4,29.9,21.7,0001.5,0009.81,0004.81,0004.12
2021-10-01 14:31:00,,0831.6,5.00,0.00,28.2,27.3,00.0,37.4,29.9,21.8,0001.3,0010.24,0004.87,0004.13
2021-10-01 14:32:00,,0831.6,5.00,0.00,28.1,27.3,00.0,37.3,29.9,21.9,0001.4,0010.32,0004.88,0004.13
2021-10-01 14:33:00,,0831.6,4.99,0.00,28.1,27.3,00.0,37.3,29.9,21.6,0001.7,0010.49,0004.95,0004.14
2021-10-01 14:34:00,,0831.6,4.99,0.00,28.1,27.3,00.0,37.3,29.9,21.7,0002.1,0010.43,0005.02,0004.16
2021-10-01 14:35:00,,0831.6,5.00,0.00,28.1,27.3,00.0,37.3,29.9,21.9,0002.0,0010.58,0005.07,0004.17
2021-10-01 14:36:00,,0831.6,5.00,0.00,28.1,27.3,00.0,37.3,29.9,21.8,0001.5,0011.16,0005.12,0004.19
2021-10-01 14:37:00,,0831.6,5.00,0.00,28.1,27.3,00.0,37.3,29.9,21.9,0000.5,0011.32,0005.20,0004.20
2021-10-01 14:38:00,,0831.6,4.99,0.00,28.1,27.3,00.0,37.3,29.9,22.0,0000.0,0011.43,0005.24,0004.22
2021-10-01 14:39:00,,0831.6,5.01,0.00,28.1,27.3,00.0,37.3,29.9,22.0,0001.0,0011.66,0005.22,0004.21
2021-10-01 14:40:00,,0831.7,5.01,0.00,28.1,27.3,00.0,37.3,29.9,22.0,0001.1,0011.52,0005.16,0004.21
2021-10-01 14:41:00,,0831.7,5.01,0.00,28.1,27.3,00.0,37.3,29.9,22.0,0001.0,0010.68,0005.14,0004.20
2021-10-01 14:42:00,,0831.7,5.00,0.00,28.1,27.3,00.0,37.3,29.9,22.0,0000.9,0010.36,0005.13,0004.22
2021-10-01 14:43:00,,0831.7,4.98,0.00,28.1,27.3,00.0,37.3,29.9,21.5,0000.7,0010.49,0005.13,0004.22
2021-10-01 14:44:00,,0831.7,5.01,0.00,28.1,27.3,00.0,37.3,29.9,21.8,0000.6,0010.83,0005.08,0004.22
2021-10-01 14:45:00,,0831.7,5.00,0.00,28.1,27.3,00.0,37.3,29.9,21.7,0000.3,0010.84,0005.00,0004.20
2021-10-01 14:46:00,,0831.7,4.99,0.00,28.1,27.3,00.0,37.3,29.9,21.5,0000.1,0010.74,0005.01,0004.20
2021-10-01 14:47:00,,0831.8,5.01,0.00,28.1,27.3,00.0,37.3,29.9,21.8,0000.4,0010.36,0005.02,0004.20
2021-10-01 14:48:00,,0831.7,4.99,0.00,28.1,27.3,00.0,37.3,29.9,22.1,0000.6,0010.20,0004.95,0004.20
2021-10-01 14:49:00,,0831.7,5.00,0.00,28.1,27.3,00.0,37.2,30.0,21.8,0000.8,0010.01,0004.93,0004.19
2021-10-01 14:50:00,,0831.7,5.00,0.00,28.1,27.3,00.0,37.2,30.0,22.2,0000.9,0010.04,0004.91,0004.20
2021-10-01 14:51:00,,0831.7,5.00,0.00,28.1,27.3,00.0,37.2,29.9,22.0,0001.3,0010.19,0004.93,0004.22
2021-10-01 14:52:00,,0831.7,4.99,0.00,28.2,27.4,00.0,37.2,30.0,22.0,0001.3,0010.08,0004.94,0004.21
2021-10-01 14:53:00,,0831.7,5.00,0.00,28.2,27.4,00.0,37.3,30.0,22.2,0001.5,0009.91,0004.91,0004.22
2021-10-01 14:54:00,,0831.7,5.01,0.00,28.2,27.4,00.0,37.3,30.1,22.0,0001.3,0009.74,0004.90,0004.22
2021-10-01 14:55:00,,0831.7,4.99,0.00,28.2,27.4,00.0,37.3,30.0,21.7,0001.3,0009.28,0004.93,0004.23
2021-10-01 14:56:00,,0831.7,5.00,0.00,28.2,27.4,00.0,37.3,30.0,21.9,0001.8,0009.19,0004.97,0004.25
2021-10-01 14:57:00,,0831.7,5.00,0.00,28.2,27.4,00.0,37.3,30.0,22.3,0001.8,0009.20,0004.97,0004.25
2021-10-01 14:58:00,,0831.7,5.01,0.00,28.2,27.4,00.0,37.3,30.0,22.3,0001.7,0009.24,0004.98,0004.27
2021-10-01 14:59:00,,0831.7,5.00,0.00,28.2,27.4,00.0,37.3,30.0,22.5,0002.1,0009.44,0005.01,0004.27
